"Pseudo-MPEC" for P10HNrc

Created 2018 Jun 17 14:18:24 UT using Find_Orb

Click here for an explanation of pseudo-MPECs

 
 Astrometry: 
     P10HNrc  C2018 06 14mxAstrometry9hj(yvcXGNtwPLSnfkZy^qF#gO):Ql:?\B?X,wZZF51
     P10HNrc  C2018 06 14LWdR13Vmq:?=q,m!GRlaKN^jajBA$nRBF=UdtI\4BS`NaOHmuc$GF51
     P10HNrc  C2018 06 14/ek+`Iy8lyVG=*JSrl-Xua?$c2yM+#N:B@E(ixu5wQ]n5aH-./f)F51
     P10HNrc  C2018 06 14p_-ZL`aWd5K`UJiyHd4yoKG*3o7u$W$Oqe/CKJTi_%Po)sn+]\*,F51
     P10HNrc KC2018 06 14b+6u!'JY9N.0mq-uaredacted;b[@lPIexTZ8.BCxqx%AXrI@(li474
     P10HNrc KC2018 06 145gPwJiRs.PM0e?-cYausn$nP@:t/'J,*OO6H]gPmRoe92'rNWM!%474
     P10HNrc KC2018 06 14+o/K/)[kTAO)K?+.,[V8+A,qIXE+G_6pnZxQ%,L.iwMt,40Lo]2f474
     P10HNrc |C2018 06 14,kffPgKA]@7qrhv$n^ml2gRFQnLFQ_g8PSX@^!W$8)PYTOGAPhsv807
     P10HNrc |C2018 06 14tAH@raad7:Cr4'sF_2O5l.CAjV2i,,0/see']ph!b)DZq%-=dsFS807
     P10HNrc |C2018 06 14fUva5@XlSGR_2afoXUpt8oT/t;M95MlU(CpcNdvV.XvWjQ'dCPrS807
     P10HNrc |C2018 06 17K3ZH-dWj-NbqgRvC`TtqDKS.I)ZV.njLpQ7NADV]oXc7e`4Kn.w9807
     P10HNrc |C2018 06 174P!]Y\9h*)nZ+(V*^9SqWj\q%aeg8X!hZ^pQjZ^oD]%(ur[lOL(+807
     P10HNrc |C2018 06 17D@r\xN%22'(dK(xc]G-tL5oEKNQDO6Bo.%G\*ZIebg6E?y(NEOCP807

Station data:
(474) Mount John Observatory, Lake Tekapo  (S43.987388 E170.464960)  New
   Zealand.  Observers A. C. Gilmore, P. M. Kilmartin. Measurer P. M.
   Kilmartin. 1.0-m f/7.7 reflector + CCD.
(807) Cerro Tololo Observatory, La Serena  (S30.169136 W70.805900)  Chile.
   1.5-m Ritchey-Chrétien.
(F51) Pan-STARRS 1, Haleakala  (N20.707235 W156.255910)  US/Hawaii.
   Observers N. Primak, A. Schultz, S. Watters, J. Thiel, T. Goggia. Measurer
   PS1 Science Consortium. 1.8-m Ritchey-Chrétien + CCD.

Orbital elements:  P10HNrc
   Perihelion 2019 Jul 30.192149 +/- 57.2 TT =  4:36:41 (JD 2458694.692149)
Epoch 2018 Jun 17.0 TT = JDT 2458286.5                        AutoNEOCP
M 265.46877 +/- 19                  (J2000 ecliptic)
n   0.23158510 +/- 0.02             Peri.   96.08102 +/- 12
a   2.62620710 +/- 0.152            Node   261.93477 +/- 1.6
e   0.3008125 +/- 0.0386            Incl.   28.02701 +/- 1.3
P   4.26                   H 17.1   G  0.15   U 10.2  
q 1.83621103 +/- 0.028    Q 3.41620316 +/- 0.315
From 13 observations 2018 June 14-17; mean residual 0".20
Residuals in arcseconds: 
180614 F51  .01+  .08-    180614 474  .25+  .38-    180617 807  .10-  .21-    
180614 F51  .05-  .29+    180614 474  .25-  .17-    180617 807  .04-  .29+    
180614 F51  .00   .16-    180614 807  .01+  .29+    180617 807  .13+  .10-    
180614 F51  .05+  .04-    180614 807  .08-  .00     
180614 474  .00   .52+    180614 807  .05+  .27-    

Ephemerides (geocentric):
Date (UTC) HH   RA              Dec         delta   r     elong  mag " sig PA
---- -- -- --  -------------   -----------  ------ ------ -----  --- ---- ---
2018 06 17 14  14 02 09.463   -32 19 59.07  2.1347 2.9034 130.9 21.9  .51  72
2018 06 17 15  14 02 09.007   -32 19 27.45  2.1349 2.9033 130.9 21.9  .55  72
2018 06 17 16  14 02 08.555   -32 18 55.83  2.1352 2.9031 130.8 21.9  .60  72
2018 06 17 17  14 02 08.105   -32 18 24.23  2.1355 2.9030 130.8 21.9  .64  72
2018 06 17 18  14 02 07.658   -32 17 52.64  2.1357 2.9029 130.8 21.9  .69  72
2018 06 17 19  14 02 07.215   -32 17 21.06  2.1360 2.9028 130.7 21.9  .73  72
2018 06 17 20  14 02 06.774   -32 16 49.49  2.1363 2.9027 130.7 21.9  .78  72
2018 06 17 21  14 02 06.336   -32 16 17.93  2.1366 2.9026 130.6 21.9  .83  72
2018 06 17 22  14 02 05.902   -32 15 46.38  2.1368 2.9025 130.6 21.9  .88  72
2018 06 17 23  14 02 05.470   -32 15 14.84  2.1371 2.9024 130.6 21.9  .93  72
2018 06 18 00  14 02 05.041   -32 14 43.31  2.1374 2.9022 130.5 21.9  .98  72
2018 06 18 01  14 02 04.615   -32 14 11.79  2.1377 2.9021 130.5 21.9  1.0  72
2018 06 18 02  14 02 04.192   -32 13 40.29  2.1379 2.9020 130.5 21.9  1.1  72
2018 06 18 03  14 02 03.772   -32 13 08.79  2.1382 2.9019 130.4 21.9  1.1  72
2018 06 18 04  14 02 03.355   -32 12 37.31  2.1385 2.9018 130.4 21.9  1.2  72
2018 06 18 05  14 02 02.941   -32 12 05.84  2.1388 2.9017 130.3 21.9  1.3  72
2018 06 18 06  14 02 02.530   -32 11 34.37  2.1390 2.9016 130.3 21.9  1.3  72
2018 06 18 07  14 02 02.121   -32 11 02.92  2.1393 2.9015 130.3 21.9  1.4  72
2018 06 18 08  14 02 01.716   -32 10 31.48  2.1396 2.9013 130.2 21.9  1.4  72
2018 06 18 09  14 02 01.314   -32 10 00.05  2.1399 2.9012 130.2 21.9  1.5  72
2018 06 18 10  14 02 00.915   -32 09 28.64  2.1401 2.9011 130.1 21.9  1.5  72
2018 06 18 11  14 02 00.518   -32 08 57.23  2.1404 2.9010 130.1 21.9  1.6  72
2018 06 18 12  14 02 00.125   -32 08 25.84  2.1407 2.9009 130.1 21.9  1.7  72
2018 06 18 13  14 01 59.734   -32 07 54.45  2.1410 2.9008 130.0 21.9  1.7  72
2018 06 18 14  14 01 59.347   -32 07 23.08  2.1413 2.9007 130.0 21.9  1.8  72
2018 06 18 15  14 01 58.962   -32 06 51.72  2.1415 2.9005 130.0 21.9  1.9  72
2018 06 18 16  14 01 58.581   -32 06 20.37  2.1418 2.9004 129.9 21.9  1.9  72
2018 06 18 17  14 01 58.202   -32 05 49.03  2.1421 2.9003 129.9 21.9  2.0  72
2018 06 18 18  14 01 57.826   -32 05 17.70  2.1424 2.9002 129.8 21.9  2.1  72
2018 06 18 19  14 01 57.454   -32 04 46.38  2.1427 2.9001 129.8 21.9  2.1  72
2018 06 18 20  14 01 57.084   -32 04 15.08  2.1429 2.9000 129.8 21.9  2.2  72
2018 06 18 21  14 01 56.717   -32 03 43.78  2.1432 2.8999 129.7 21.9  2.3  72
2018 06 18 22  14 01 56.353   -32 03 12.50  2.1435 2.8998 129.7 21.9  2.4  72
2018 06 18 23  14 01 55.992   -32 02 41.23  2.1438 2.8996 129.6 21.9  2.4  72
2018 06 19 00  14 01 55.634   -32 02 09.97  2.1441 2.8995 129.6 21.9  2.5  72
2018 06 19 01  14 01 55.279   -32 01 38.72  2.1444 2.8994 129.6 21.9  2.6  72
2018 06 19 02  14 01 54.927   -32 01 07.49  2.1446 2.8993 129.5 21.9  2.7  72
2018 06 19 03  14 01 54.577   -32 00 36.26  2.1449 2.8992 129.5 21.9  2.7  72
2018 06 19 04  14 01 54.231   -32 00 05.05  2.1452 2.8991 129.5 21.9  2.8  72
2018 06 19 05  14 01 53.888   -31 59 33.85  2.1455 2.8990 129.4 21.9  2.9  72
2018 06 19 06  14 01 53.547   -31 59 02.66  2.1458 2.8989 129.4 21.9  3.0  72
2018 06 19 07  14 01 53.210   -31 58 31.48  2.1461 2.8987 129.3 21.9  3.1  72
2018 06 19 08  14 01 52.875   -31 58 00.32  2.1463 2.8986 129.3 21.9  3.1  72
2018 06 19 09  14 01 52.544   -31 57 29.16  2.1466 2.8985 129.3 21.9  3.2  72
2018 06 19 10  14 01 52.215   -31 56 58.02  2.1469 2.8984 129.2 21.9  3.3  72
2018 06 19 11  14 01 51.889   -31 56 26.89  2.1472 2.8983 129.2 21.9  3.4  72
2018 06 19 12  14 01 51.567   -31 55 55.77  2.1475 2.8982 129.1 21.9  3.5  72
2018 06 19 13  14 01 51.247   -31 55 24.66  2.1478 2.8981 129.1 21.9  3.6  72